White Rock, British Columbia

6:02 PM PST on December 05, 2016 (GMT -0800)
White Rock

Weather History for CWWK - December, 2012

Change the Weather History Date:

Tuesday, December 11, 2012

  Actual Average Record
Temperature  
Mean Temperature 42 °F -  
Max Temperature 45 °F - - ()
Min Temperature 40 °F - - ()
Degree Days  
Heating Degree Days 22    
Moisture  
Dew Point 40 °F    
Average Humidity 88    
Maximum Humidity 93    
Minimum Humidity 79    
Precipitation  
Precipitation 0.39 in - - ()
Sea Level Pressure  
Sea Level Pressure 29.72 in    
Wind  
Wind Speed 5 mph ()    
Max Wind Speed 8 mph    
Max Gust Speed -    
T = Trace of Precipitation, MM = Missing Value Source: Averaged Metar Reports

Daily Weather History Graph

Daily Weather History Graph

Search for Another Location

Airport or City:

Trip Planner

Search our weather history database for the weather conditions in past years. The results will help you decide how hot, cold, wet, or windy it might be!

Date:

Astronomy

Dec. 11, 2012 Rise Set
Actual Time 7:55 AM PST 4:13 PM PST
Civil Twilight 7:18 AM PST 4:50 PM PST
Nautical Twilight 6:38 AM PST 5:31 PM PST
Astronomical Twilight 5:59 AM PST 6:09 PM PST
Moon 5:52 AM PST (12/11) 3:01 PM PST (12/11)
Length of Visible Light 9h 32m
Length of Day
8h 17m
Waning Crescent, 4% of the Moon is Illuminated
Dec 11
Waning Crescent
Dec 13
New
Dec 19
First Quarter
Dec 28
Full
Jan 4
Last Quarter

Hourly Weather History & Observations

Time (PST) Temp. Windchill Dew Point Humidity Pressure Visibility Wind Dir Wind Speed Gust Speed Precip Events Conditions
12:00 AM 44.4 °F 41.2 °F 40.6 °F 87% 30.08 in - SSE 5.8 mph - N/A   Unknown
1:00 AM 44.6 °F 40.7 °F 40.5 °F 85% 30.03 in - SSE 6.9 mph - N/A   Unknown
2:00 AM 44.6 °F 40.2 °F 40.6 °F 86% 29.98 in - SSE 8.1 mph - N/A   Unknown
3:00 AM 44.6 °F 41.4 °F 40.3 °F 85% 29.95 in - SSE 5.8 mph - N/A   Unknown
4:00 AM 44 °F - 40 °F 79% 29.90 in - SSE 6.9 mph - -  
4:00 AM 44.4 °F 40.5 °F 39.7 °F 84% 29.90 in - SSE 6.9 mph - N/A   Unknown
5:00 AM 44.6 °F 40.7 °F 39.4 °F 82% 29.85 in - SSE 6.9 mph - N/A   Unknown
6:00 AM 44.4 °F 40.5 °F 39.7 °F 84% 29.81 in - SSE 6.9 mph - 0.02 in   Unknown
7:00 AM 43.9 °F 41.3 °F 39.9 °F 86% 29.78 in - SSE 4.6 mph - 0.03 in   Unknown
8:00 AM 43.9 °F 41.3 °F 40.3 °F 87% 29.75 in - SE 4.6 mph - 0.01 in   Unknown
9:00 AM 44.1 °F 40.8 °F 40.3 °F 87% 29.73 in - SSE 5.8 mph - 0.01 in   Unknown
10:00 AM 44 °F - 41 °F 83% 29.71 in - SE 4.6 mph - -  
10:00 AM 44.1 °F 41.5 °F 40.6 °F 88% 29.71 in - SE 4.6 mph - 0.04 in   Unknown
11:00 AM 44.1 °F 41.5 °F 41.0 °F 89% 29.68 in - SE 4.6 mph - 0.06 in   Unknown
12:00 PM 44.1 °F 42.5 °F 41.0 °F 89% 29.65 in - East 3.5 mph - 0.04 in   Unknown
1:00 PM 43.7 °F - 41.0 °F 90% 29.62 in - ENE 2.3 mph - 0.11 in   Unknown
2:00 PM 42.8 °F 40.1 °F 40.5 °F 91% 29.60 in - NNE 4.6 mph - 0.09 in   Unknown
3:00 PM 42.6 °F 39.0 °F 40.3 °F 91% 29.58 in - ENE 5.8 mph - 0.06 in   Unknown
4:00 PM 41 °F - 39 °F 88% 29.57 in - ENE 4.6 mph - -  
4:00 PM 41.2 °F 38.2 °F 38.7 °F 91% 29.57 in - ENE 4.6 mph - 0.01 in   Unknown
5:00 PM 40.6 °F 37.5 °F 38.3 °F 91% 29.57 in - NE 4.6 mph - N/A   Unknown
6:00 PM 40.5 °F 38.4 °F 38.1 °F 91% 29.58 in - NE 3.5 mph - 0.01 in   Unknown
7:00 PM 40.3 °F 38.2 °F 38.1 °F 92% 29.58 in - NE 3.5 mph - 0.02 in   Unknown
8:00 PM 41.0 °F 39.0 °F 38.8 °F 92% 29.59 in - NNE 3.5 mph - 0.06 in   Unknown
9:00 PM 40.8 °F 38.8 °F 38.8 °F 93% 29.60 in - NNE 3.5 mph - 0.03 in   Unknown
10:00 PM 41 °F - 39 °F 90% 29.61 in - NNE 3.5 mph - -  
10:00 PM 41.0 °F 39.0 °F 39.0 °F 93% 29.61 in - NNE 3.5 mph - 0.02 in   Unknown
11:00 PM 41.0 °F 39.0 °F 39.0 °F 93% 29.62 in - NNE 3.5 mph - 0.01 in   Unknown